Location: Caracas
(10.5033°N, 66.8422°W)
Time: 12:51:07
(UTC-04:00)

Tiangong 2 - Pass Details

Date: 15 November 2017
Orbit: 386 x 392 km, 42.8° (Epoch: 24 November)

Event Time Altitude Azimuth Distance (km) Brightness Sun altitude
Rises 19:41:03 0° 308° (NW) 2,253 5.5 -24.3°
Reaches altitude 10° 19:43:08 10° 303° (WNW) 1,399 4.4 -24.8°
Enters shadow 19:44:20 21° 297° (WNW) 937 3.5 -25.0°
